TimeCDT,TemperatureF,Dew PointF,Humidity,Sea Level PressureIn,VisibilityMPH,Wind Direction,Wind SpeedMPH,Gust SpeedMPH,PrecipitationIn,Events,Conditions,WindDirDegrees,DateUTC
12:15 AM,32.0,32.0,100,29.82,5.0,NNE,15.0,20.7,N/A,Snow,Light Snow,20,2013-03-24 05:15:00
12:35 AM,32.0,32.0,100,29.83,7.0,NNE,11.5,20.7,N/A,Snow,Light Snow,20,2013-03-24 05:35:00
12:55 AM,32.0,32.0,100,29.84,7.0,NNE,15.0,20.7,N/A,,Overcast,20,2013-03-24 05:55:00
1:15 AM,32.0,32.0,100,29.87,10.0,NNE,12.7,23.0,N/A,,Overcast,20,2013-03-24 06:15:00
1:35 AM,32.0,32.0,100,29.85,10.0,NNE,17.3,21.9,N/A,,Overcast,20,2013-03-24 06:35:00
1:55 AM,32.0,32.0,100,29.83,7.0,NNE,15.0,23.0,N/A,,Overcast,20,2013-03-24 06:55:00
2:15 AM,32.0,32.0,100,29.84,7.0,NNE,12.7,-,N/A,,Overcast,20,2013-03-24 07:15:00
2:35 AM,32.0,32.0,100,29.82,5.0,NNE,16.1,21.9,N/A,Snow,Light Snow,20,2013-03-24 07:35:00
2:55 AM,32.0,32.0,100,29.81,4.0,NNE,12.7,18.4,N/A,Snow,Light Snow,20,2013-03-24 07:55:00
3:15 AM,32.0,32.0,100,29.78,3.0,NNE,13.8,21.9,N/A,Snow,Light Snow,20,2013-03-24 08:15:00
3:35 AM,32.0,32.0,100,29.76,3.0,NNE,16.1,20.7,N/A,Snow,Light Snow,20,2013-03-24 08:35:00
3:55 AM,32.0,32.0,100,29.75,4.0,NNE,16.1,21.9,N/A,Snow,Light Snow,20,2013-03-24 08:55:00
4:15 AM,32.0,32.0,100,29.74,3.0,NNE,15.0,23.0,N/A,Snow,Light Snow,20,2013-03-24 09:15:00
4:55 AM,32.0,32.0,100,29.73,3.0,North,15.0,25.3,N/A,Snow,Light Snow,360,2013-03-24 09:55:00
5:15 AM,32.0,32.0,100,29.76,2.0,North,11.5,19.6,N/A,Snow,Light Snow,350,2013-03-24 10:15:00
5:35 AM,32.0,32.0,100,29.78,1.0,NNW,10.4,-,N/A,Snow,Light Snow,340,2013-03-24 10:35:00
5:55 AM,32.0,32.0,100,29.77,1.0,North,15.0,21.9,N/A,Snow,Snow,350,2013-03-24 10:55:00
6:15 AM,32.0,30.2,93,29.78,1.2,North,15.0,23.0,N/A,Snow,Light Snow,360,2013-03-24 11:15:00
6:35 AM,32.0,30.2,93,29.78,1.5,North,13.8,21.9,N/A,Snow,Light Snow,350,2013-03-24 11:35:00
6:55 AM,32.0,30.2,93,29.78,1.2,North,13.8,20.7,N/A,Snow,Light Snow,360,2013-03-24 11:55:00
7:15 AM,32.0,30.2,93,29.78,1.8,North,15.0,20.7,N/A,Snow,Light Snow,350,2013-03-24 12:15:00
7:35 AM,30.2,30.2,100,29.79,0.5,North,16.1,20.7,N/A,Snow,Light Snow,350,2013-03-24 12:35:00
7:55 AM,30.2,30.2,100,29.80,0.8,North,12.7,23.0,N/A,Snow,Light Snow,350,2013-03-24 12:55:00
8:15 AM,30.2,28.4,93,29.80,1.0,North,15.0,21.9,N/A,Snow,Light Snow,350,2013-03-24 13:15:00
8:35 AM,30.2,28.4,93,29.81,1.0,NNW,16.1,25.3,N/A,Snow,Light Snow,340,2013-03-24 13:35:00
8:55 AM,30.2,28.4,93,29.82,0.8,NNW,18.4,24.2,N/A,Snow,Light Snow,330,2013-03-24 13:55:00
9:15 AM,30.2,28.4,93,29.82,1.0,NNW,18.4,27.6,N/A,Snow,Light Snow,330,2013-03-24 14:15:00
9:35 AM,30.2,28.4,93,29.82,1.5,NNW,17.3,24.2,N/A,Snow,Light Snow,330,2013-03-24 14:35:00
9:55 AM,30.2,28.4,93,29.83,2.5,NNW,15.0,21.9,N/A,Snow,Light Snow,340,2013-03-24 14:55:00
10:15 AM,30.2,28.4,93,29.83,3.0,NNW,18.4,27.6,N/A,,Overcast,340,2013-03-24 15:15:00
10:35 AM,30.2,28.4,93,29.84,2.5,NNW,18.4,24.2,N/A,,Overcast,340,2013-03-24 15:35:00
10:55 AM,32.0,28.4,87,29.84,2.5,NW,17.3,20.7,N/A,,Overcast,320,2013-03-24 15:55:00
11:15 AM,30.2,28.4,93,29.85,2.0,NNW,18.4,26.5,N/A,,Overcast,330,2013-03-24 16:15:00
11:35 AM,32.0,28.4,87,29.85,2.5,NNW,19.6,25.3,N/A,Snow,Light Snow,330,2013-03-24 16:35:00
11:55 AM,32.0,28.4,87,29.86,3.0,NW,18.4,-,N/A,Snow,Light Snow,320,2013-03-24 16:55:00
12:15 PM,32.0,28.4,87,29.86,3.0,NNW,13.8,23.0,N/A,,Overcast,330,2013-03-24 17:15:00
12:35 PM,32.0,28.4,87,29.87,3.0,NW,17.3,23.0,N/A,,Overcast,320,2013-03-24 17:35:00
12:55 PM,32.0,28.4,87,29.87,4.0,NW,15.0,23.0,N/A,,Overcast,320,2013-03-24 17:55:00
1:15 PM,32.0,26.6,80,29.88,2.5,NW,18.4,23.0,N/A,,Haze,310,2013-03-24 18:15:00
1:35 PM,32.0,28.4,87,29.88,2.0,NW,18.4,23.0,N/A,,Overcast,310,2013-03-24 18:35:00
1:55 PM,32.0,28.4,87,29.89,2.0,WNW,16.1,25.3,N/A,Snow,Light Snow,300,2013-03-24 18:55:00
2:15 PM,32.0,28.4,87,29.89,2.5,NW,18.4,25.3,N/A,,Overcast,310,2013-03-24 19:15:00
2:35 PM,32.0,28.4,87,29.89,2.5,WNW,19.6,23.0,N/A,Snow,Light Snow,300,2013-03-24 19:35:00
2:55 PM,32.0,28.4,87,29.90,2.5,WNW,17.3,23.0,N/A,Snow,Light Snow,300,2013-03-24 19:55:00
3:15 PM,32.0,28.4,87,29.90,1.8,WNW,17.3,23.0,N/A,Snow,Light Snow,300,2013-03-24 20:15:00
3:35 PM,32.0,28.4,87,29.91,-9999.0,WNW,15.0,-,N/A,Snow,Light Snow,300,2013-03-24 20:35:00
3:55 PM,32.0,28.4,87,29.91,-9999.0,WNW,16.1,-,N/A,,Unknown,290,2013-03-24 20:55:00
4:15 PM,32.0,28.4,87,29.92,3.0,WNW,13.8,20.7,N/A,,Overcast,300,2013-03-24 21:15:00
4:35 PM,32.0,28.4,87,29.92,4.0,WNW,15.0,21.9,N/A,,Overcast,300,2013-03-24 21:35:00
4:55 PM,32.0,28.4,87,29.93,5.0,WNW,16.1,24.2,N/A,,Overcast,300,2013-03-24 21:55:00
5:15 PM,32.0,26.6,80,29.94,10.0,WNW,16.1,20.7,N/A,,Overcast,300,2013-03-24 22:15:00
5:35 PM,32.0,26.6,80,29.94,10.0,WNW,13.8,19.6,N/A,,Overcast,290,2013-03-24 22:35:00
5:55 PM,32.0,24.8,75,29.95,10.0,WNW,18.4,23.0,N/A,,Overcast,300,2013-03-24 22:55:00
6:15 PM,32.0,24.8,75,29.95,10.0,WNW,17.3,24.2,N/A,,Overcast,290,2013-03-24 23:15:00
6:35 PM,30.2,24.8,80,29.97,10.0,WNW,16.1,26.5,N/A,,Overcast,290,2013-03-24 23:35:00
6:55 PM,30.2,24.8,80,29.98,10.0,WNW,17.3,24.2,N/A,,Overcast,290,2013-03-24 23:55:00
7:15 PM,30.2,23.0,75,29.99,10.0,WNW,13.8,24.2,N/A,,Overcast,290,2013-03-25 00:15:00
7:35 PM,30.2,24.8,80,30.00,10.0,West,12.7,20.7,N/A,,Overcast,280,2013-03-25 00:35:00
7:55 PM,30.2,23.0,75,30.00,10.0,West,15.0,20.7,N/A,,Overcast,280,2013-03-25 00:55:00
8:15 PM,30.2,23.0,75,30.01,10.0,WNW,13.8,23.0,N/A,,Overcast,290,2013-03-25 01:15:00
8:55 PM,30.2,23.0,75,30.02,10.0,West,11.5,20.7,N/A,,Overcast,280,2013-03-25 01:55:00
9:35 PM,28.4,21.2,74,30.02,10.0,WNW,16.1,21.9,N/A,,Overcast,290,2013-03-25 02:35:00
9:55 PM,28.4,21.2,74,30.03,10.0,WNW,15.0,18.4,N/A,,Overcast,290,2013-03-25 02:55:00
10:15 PM,28.4,21.2,74,30.04,10.0,WNW,15.0,21.9,N/A,,Overcast,290,2013-03-25 03:15:00
10:35 PM,28.4,21.2,74,30.04,10.0,WNW,13.8,19.6,N/A,,Overcast,290,2013-03-25 03:35:00
10:55 PM,28.4,21.2,74,30.04,10.0,WNW,16.1,21.9,N/A,,Mostly Cloudy,290,2013-03-25 03:55:00
11:15 PM,28.4,19.4,69,30.04,10.0,West,12.7,-,N/A,,Scattered Clouds,270,2013-03-25 04:15:00